This demonstration page uses our WeatherBlox Daily Observations layout. Learn more.

Left ArrowRight Arrow

Hourly Observations for July 28, 2020

Temp ( °F °C ) Dew Point ( °F °C ) Humidity (%) Winds ( mph kmh ) Pressure ( in mb ) Visibility ( mi km ) Precip ( " mm )
12:51 am 00:51 Clear 77 25 63 17.2 62 62 Calm 29.77 1008 10 16.0934 0 0
1:51 am 01:51 Clear 76 24.4 63 17.2 64 64 Calm 29.76 1008 10 16.0934 0 0
2:51 am 02:51 Clear 74 23.3 63 17.2 69 69 Calm 29.76 1008 10 16.0934 0 0
3:51 am 03:51 Clear 75 23.9 63 17.2 66 66 Calm 29.78 1008 10 16.0934 0 0
4:51 am 04:51 Clear 74 23.3 63 17.2 69 69 Calm 29.79 1009 10 16.0934 0 0
5:51 am 05:51 Sunny 73 22.8 63 17.2 71 71 Calm 29.82 1010 10 16.0934 0 0
6:51 am 06:51 Sunny 77 25 64 17.8 64 64 Calm 29.83 1010 10 16.0934 0 0
7:51 am 07:51 Sunny 82 27.8 62 16.7 51 51 Calm 29.84 1010 10 16.0934 0 0
8:51 am 08:51 Sunny 90 32.2 60 15.6 37 37 VRB 3 6 29.83 1010 10 16.0934 0 0
9:51 am 09:51 Sunny 91 32.8 59 15 34 34 SSE 8 13 29.83 1010 10 16.0934 0 0
10:51 am 10:51 Sunny 95 35 58 14.4 29 29 SSE 8 13 29.81 1009 10 16.0934 0 0
11:51 am 11:51 Sunny 98 36.7 57 13.9 25 25 undefined N/A 29.78 1008 10 16.0934 0 0
12:51 pm 12:51 Sunny 99 37.2 53 11.7 21 21 VRB 5 7 29.76 1008 10 16.0934 0 0
1:51 pm 13:51 Sunny 102 38.9 50 10 17 17 VRB 7 11 29.72 1007 10 16.0934 0 0
2:51 pm 14:51 Sunny 101 38.3 49 9.4 17 17 VRB 7 11 29.7 1006 10 16.0934 0 0
3:51 pm 15:51 Sunny 104 40 49 9.4 16 16 VRB 3 6 29.66 1004 10 16.0934 0 0
5:51 pm 17:51 Sunny 98 36.7 54 12.2 23 23 NNE 15 24 29.66 1004 10 16.0934 0 0
6:51 pm 18:51 Sunny 95 35 53 11.7 24 24 NE 20 31 29.68 1005 10 16.0934 0 0
7:51 pm 19:51 Clear 93 33.9 52 11.1 25 25 NNE 12 19 29.68 1005 10 16.0934 0 0
8:51 pm 20:51 Clear 90 32.2 52 11.1 27 27 W 8 13 29.7 1006 10 16.0934 0 0
9:51 pm 21:51 Clear 88 31.1 53 11.7 30 30 ENE 5 7 29.72 1007 10 16.0934 0 0
10:51 pm 22:51 Clear 87 30.6 53 11.7 31 31 NE 7 11 29.72 1007 10 16.0934 0 0
11:51 pm 23:51 Clear 85 29.4 54 12.2 35 35 S 3 6 29.72 1007 10 16.0934 0 0

Powered by AerisWeather